KBKN Airport (Blackwell-Tonkawa Muni) Information

FAA: BKN - ICAO: KBKN

KBKN Airport Location

State Oklahoma
County Kay
City Blackwell
KBKN Airport is 5 miles southwest of Blackwell, OK.
Latitude 36-44-42.4000N
Longitude 097-20-58.5000W
Elevation 1,030ft

KBKN Airport METARs

METAR KBKN 282235Z AUTO 16021G33KT 10SM CLR 30/19 A2961 RMK AO2
Altimeter 29.61"
Temperature 30.0°C (86.0°F)
Wind 160° at 21KT with gusts to 33KT
Clouds Skies are clear.
Visibility 10.0mi
Time observed: 2022-05-28T22:35:00Z

KBKN Airport Details

Status Operational
Activation September 1974
Ownership Public
Usage Public
Chart WICHITA
ATC on-site No
Beacon schedule sunset-sunrise
Beacon color clear green

KBKN Airport Contacts

Owner CITIES OF BLACKWELL/TONKAWA
Owner address 16705 W. HUBBARD ROAD, BLACKWELL, OK 74631
Owner phone 580-363-4242
Manager PRESIDENT - DARYLE VOSS
Manager address 1011 14TH AVE, NW, ARDMORE, OK 73401
Manager phone 580-223-5400

KBKN Airport (Blackwell-Tonkawa Muni) Radio Frequencies

KBKN (Airport) Radio Frequencies

UNICOM 122.8
Common traffic advisory frequency (CTAF) 122.8